Location: Cuiry
(49.3858°N, 3.7708°E)
Time: 23:55:33
(UTC+00:00)

Meteor 2-15 Rocket - Pass Details

Date: 12 January 2026
Orbit: 939 x 956 km, 82.5° (Epoch: 18 February)

Event Time Altitude Azimuth Distance (km) Brightness Sun altitude
Rises 18:13:35 0° 351° (N) 3,647 7.5 -19.4°
Reaches altitude 10° 18:16:08 10° 354° (N) 2,696 6.8 -19.8°
Maximum altitude 18:22:17 66° 77° (ENE) 1,035 4.3 -20.8°
Drops below altitude 10° 18:28:21 10° 160° (SSE) 2,669 6.7 -21.8°
Sets 18:30:51 0° 163° (SSE) 3,607 7.4 -22.2°
